Location: Pinhey's Point
(45.4411°N, 75.9539°W)
Time: 22:35:30
(UTC-05:00)

Daily predictions for brighter satellites

Satellite Brightness Start Highest point End
(mag) Time Altitude Azimuth Time Altitude Azimuth Time Altitude Azimuth
Cosmos 371 Rocket 3.6 17:18:57 10° S 17:23:34 50° ESE 17:28:13 10° NNE
Aureole 2 Rocket 4.2 17:23:44 10° SE 17:26:29 19° E 17:29:24 10° NE
SMAP 3.1 17:23:48 10° SSE 17:28:27 84° ENE 17:33:08 10° NNW
Cosmos 1763 Rocket 3.6 17:23:15 10° SSW 17:28:28 81° WNW 17:33:39 10° NNE
Cosmos 1455 4.1 17:28:23 10° NE 17:29:07 10° ENE 17:29:51 10° ENE
Cosmos 1674 2.9 17:26:41 10° SSW 17:30:29 77° W 17:34:23 10° N
Cosmos 1844 4.0 17:25:05 10° NNW 17:30:52 80° WSW 17:36:40 10° SSE
Cosmos 372 Rocket 4.2 17:26:11 10° NNW 17:31:08 48° ENE 17:36:04 10° SE
Cosmos 1908 4.1 17:28:51 10° NNW 17:32:40 54° W 17:36:29 10° S
Tsikada Rocket 4.3 17:26:23 10° SSW 17:32:46 78° W 17:39:14 10° N
Cosmos 1726 2.4 17:29:55 10° N 17:33:34 45° ENE 17:37:12 10° SSE
Lacrosse 4 Rocket 3.3 17:32:00 10° NNE 17:33:42 12° NE 17:35:24 10° ENE
Cosmos 1500 Rocket 3.5 17:34:54 10° S 17:39:10 64° E 17:43:31 10° NNE
Cosmos 540 Rocket 3.8 17:35:28 10° S 17:40:24 48° ESE 17:45:22 10° NNE
USA 215 3.4 17:36:57 10° ESE 17:43:19 56° NNE 17:49:42 10° NW
Cosmos 2237 Rocket 2.4 17:39:01 10° S 17:44:27 53° ESE 17:49:57 10° NE
Cosmos 44 Rocket 3.4 17:39:36 10° SSW 17:44:45 85° ESE 17:49:48 10° NE
Cosmos 2084 3.1 17:41:04 10° SW 17:44:57 85° SE 17:48:46 10° NE
Cosmos 2369 Rocket 4.1 17:44:26 10° NNE 17:45:54 11° NE 17:47:22 10° NE
NOSS 0 Rocket 4.0 17:40:23 10° SSW 17:46:32 66° ESE 17:52:42 10° NNE
FREGAT/IRIS 4.4 17:46:28 10° ESE 17:48:14 14° ENE 17:49:59 10° NNE
Cosmos 1300 2.6 17:45:14 10° N 17:49:05 69° E 17:52:53 10° SSE
COSMOS 2428 3.5 17:43:42 10° SW 17:49:17 53° WNW 17:54:53 10° NNE
Cosmos 1634 Rocket 4.0 17:44:17 10° N 17:50:31 88° E 17:56:41 10° S
SL-16 R/B 3.1 17:46:55 10° SSE 17:51:34 27° ESE 17:56:01 11° NE
Cosmos 1340 Rocket 3.5 17:48:19 10° SSE 17:51:47 31° E 17:55:16 10° NNE
SL-14 R/B 3.4 17:49:09 10° S 17:53:00 56° E 17:56:55 10° NNE
Abrixas 3.5 17:51:16 10° SW 17:53:57 33° SSE 17:55:48 16° E
Cosmos 1461 4.2 17:51:48 10° SSE 17:55:03 22° ESE 17:57:07 15° ENE
Cosmos 2058 3.2 17:51:47 10° SSE 17:55:41 44° E 17:59:37 10° NNE
Cosmos 1484 Rocket 2.7 17:52:28 10° SSE 17:56:24 78° ENE 18:00:25 10° N
Cosmos 1633 Rocket 4.5 17:54:19 10° SE 17:57:16 18° E 17:58:57 15° ENE
Cosmos 2297 3.8 17:54:57 10° NNW 18:00:33 54° ENE 18:06:08 10° SE
Cosmos 304 Rocket 4.4 17:58:06 10° SSE 18:02:29 36° ESE 18:06:33 12° NE
Lacrosse 5 3.5 18:03:29 10° WNW 18:07:31 23° N 18:10:54 13° NE
Meteor 1-28 Rocket 3.3 18:10:20 10° NNE 18:13:59 51° E 18:17:36 10° S
CZ-4C R/B 4.3 18:10:24 10° NNW 18:14:30 17° NNE 18:17:48 13° NE
Cosmos 1900 4.3 18:10:06 10° NNW 18:15:02 64° NE 18:20:00 10° SE
Cosmos 1125 Rocket 4.4 18:10:08 10° NNW 18:15:11 52° WSW 18:20:12 10° S
Meteor 2-10 4.0 18:11:10 10° N 18:16:17 88° E 18:21:31 10° S
Cosmos 1356 Rocket 4.0 18:13:50 10° SSE 18:17:24 32° E 18:19:10 22° NE
COSMO-SKYMED 1 2.5 18:14:07 10° NNE 18:18:29 84° ESE 18:22:49 10° SSW
Cosmos 1707 Rocket 3.7 18:14:20 10° N 18:18:33 48° ENE 18:22:45 10° SSE
CENTAUR R/B 3.6 18:13:14 10° WSW 18:19:12 42° NW 18:25:57 10° NNE
DMSP B5D1-3 4.5 18:14:46 10° NNE 18:19:49 62° E 18:24:52 10° S
Thor Agena Rocket 4.4 18:17:54 10° N 18:23:01 52° WNW 18:28:00 10° SW
Spot 2 Rocket 4.1 18:20:37 10° SE 18:25:04 33° ENE 18:29:33 10° N
Resurs 01 Rocket 2.3 18:26:17 21° ESE 18:28:28 32° ENE 18:32:25 10° N
FENGYUN 3A 4.1 18:24:13 10° SE 18:29:09 38° ENE 18:34:06 10° N
Lacrosse 5 rocket 2.4 18:25:36 10° WNW 18:29:11 41° SW 18:32:57 10° SSE
Meteor 1-11 4.3 18:25:32 10° SSW 18:31:14 82° W 18:37:02 10° N
Cosmos 1666 Rocket 3.7 18:27:07 10° SSE 18:31:16 46° E 18:34:14 18° NNE
Timation 1 Rocket 4.4 18:25:48 10° NNW 18:31:51 83° WSW 18:37:52 10° SSE
Cosmos 1980 4.1 18:27:05 10° SW 18:32:42 62° WNW 18:38:22 10° NNE
METEOR-M 4.0 18:28:59 10° SSE 18:34:20 76° ENE 18:39:42 10° N
Cosmos 1184 Rocket 4.2 18:31:33 10° SSE 18:33:17 24° SE 18:33:17 24° SE
Cosmos 1538 Rocket 4.1 18:32:22 10° S 18:37:30 54° ESE 18:40:44 22° NE
Cosmos 2151 4.0 18:33:44 10° SSW 18:37:46 45° WNW 18:41:50 10° N
Cosmos 2279 Rocket 4.3 18:33:02 10° NNW 18:39:13 68° W 18:45:22 10° S
Iridium 4 Rocket 3.8 18:36:28 10° SSE 18:39:48 33° ESE 18:39:48 33° ESE
ATLAS 5 CENTAUR R/B 3.8 18:37:19 10° NNW 18:41:09 18° NNE 18:41:50 18° NNE
Orbus 7S? 4.2 18:40:05 10° NW 18:43:58 61° NE 18:48:52 23° ESE
Cosmos 44 4.1 18:40:10 10° SW 18:45:15 51° NW 18:48:47 18° NNE
FengYun 1-2 T 4.2 18:41:49 10° SSE 18:47:14 58° ENE 18:52:40 10° N
ALOS 2.3 18:43:01 10° SSE 18:47:32 53° ENE 18:52:06 10° N
NOAA 12 4.3 18:45:15 10° S 18:50:29 74° WSW 18:55:47 10° NNW
Cosmos 2333 Rocket 3.4 18:46:50 10° SW 18:52:07 39° NW 18:57:26 10° NNE
Cosmos 2219 Rocket 3.8 18:48:31 10° WSW 18:53:30 31° NW 18:58:29 10° N
TIMED 4.5 18:49:54 10° NNW 18:54:14 56° ENE 18:54:28 56° E
Cosmos 1626 2.1 18:51:38 10° S 18:55:22 82° W 18:56:51 35° N
SJ-6B 3.2 18:55:25 10° S 18:59:28 66° WSW 19:03:36 10° NNW
Cosmos 2242 Rocket 3.4 18:55:13 10° N 18:59:39 70° E 19:04:04 10° SSE
Cosmos 1943 Rocket 4.0 18:56:15 10° N 18:57:49 14° NNE 18:57:49 14° NNE
Nadezhda 4 Rocket 3.9 18:55:08 10° S 19:01:23 85° E 19:07:45 10° N
Aureole 2 Rocket 4.2 18:58:08 10° SW 19:01:41 36° WNW 19:04:27 16° N
Cosmos 2278 Rocket 4.4 18:57:03 10° NW 19:01:41 26° WSW 19:06:18 10° SSW
Cosmos 1703 4.1 19:00:00 10° SSW 19:03:47 50° WNW 19:06:55 14° N
Cosmos 1455 2.5 19:01:30 10° NNW 19:05:16 64° W 19:09:03 10° S
Lacrosse 4 Rocket 1.8 19:09:02 10° NNW 19:12:09 51° NNW 19:12:09 51° NNW
SL-19 R/B 4.4 19:08:09 10° SSE 19:14:00 78° WSW 19:19:39 10° NNW
Cosmos 773 Rocket 3.8 19:13:37 10° SSW 19:18:47 81° ESE 19:19:20 70° NE
Cosmos 1092 Rocket 3.9 19:15:24 10° S 19:21:45 87° E 19:28:08 10° N
USA 215 3.8 19:21:35 19° SSE 19:26:20 56° SW 19:32:46 10° WNW
Sich 1 4.0 19:22:56 10° SSW 19:27:13 47° WNW 19:29:42 23° NNW
Cosmos 2237 Rocket 3.9 19:24:02 10° WSW 19:28:50 28° NW 19:33:13 12° N
ATLAS 3B R/B 4.2 19:24:41 10° NNW 19:29:44 20° NNE 19:29:53 20° NNE
Cosmos 2369 Rocket 3.2 19:26:01 10° NNW 19:29:27 33° N 19:29:27 33° N
Cosmos 1461 4.0 19:30:02 10° WSW 19:33:36 41° WNW 19:33:36 41° WNW
Cosmos 1633 Rocket 4.1 19:30:29 10° SSW 19:34:42 45° WNW 19:36:08 33° NNW
SL-16 R/B 2.9 19:29:54 10° SW 19:35:23 50° WNW 19:37:58 29° N
Cosmos 2195 Rocket 4.4 19:40:50 10° S 19:46:13 71° S 19:46:13 71° S
Lacrosse 5 3.7 19:47:39 10° NW 19:50:06 21° NNW 19:50:06 21° NNW
CZ-3A R/B 4.1 19:55:16 10° WNW 19:59:31 37° SW 20:01:31 29° S
Resurs 01 Rocket 3.5 20:03:49 25° WSW 20:04:56 28° W 20:08:47 10° NW
CZ-4C R/B 3.9 19:59:00 10° NNW 20:03:00 29° N 20:03:00 29° N
USA 229 DEB 3.8 20:05:46 10° SW 20:12:14 69° WNW 20:12:14 69° WNW
USA 229 3.8 20:05:51 10° SW 20:12:17 69° WNW 20:12:17 69° WNW
ATLAS 5 CENTAUR R/B 4.1 20:21:24 10° NNW 20:23:24 22° NNW 20:23:24 22° NNW
